Location: Palomar Mountain Lodge
(33.3110°N, 116.8495°W)
Time: 00:55:57
(UTC-07:00)

OAO 3 Copernicus - Pass Details

Date: 14 June 2018
Orbit: 695 x 704 km, 35.0° (Epoch: 22 October)

Event Time Altitude Azimuth Distance (km) Brightness Sun altitude
Rises 20:33:25 0° 239° (WSW) 3,066 8.0 -7.1°
Reaches altitude 10° 20:35:52 10° 235° (SW) 2,148 7.1 -7.5°
Maximum altitude 20:40:46 54° 158° (SSE) 841 4.4 -8.4°
Drops below altitude 10° 20:45:41 10° 82° (E) 2,148 6.4 -9.2°
Enters shadow 20:48:03 - 77° (ENE) 3,036 7.2 -9.6°
